Regional Weather Roundup
Issued by NWS

Home | Current Version | Previous Version | Text Only | Print | Product List | Glossary Off
Versions: 1 2 3 4 5 6 7 8 9 10 11 12 13 14 15 16 17 18 19 20 21 22 23 24 25 26 27 28 29 30 31 32 33 34 35 36 37 38 39 40 41 42 43 44 45 46 47 48 49 50

000
ASUS43 KFSD 192110
RWRSD

WEATHER ROUNDUP FOR SOUTH DAKOTA
NATIONAL WEATHER SERVICE SIOUX FALLS SD
300 PM CST SUN NOV 19 2017

NOTE: "FAIR" INDICATES FEW OR NO CLOUDS BELOW 12,000 FEET WITH NO
SIGNIFICANT WEATHER AND/OR OBSTRUCTIONS TO VISIBILITY.


SDZ001>005-009-010-012>017-192200-
NORTHWEST AND NORTH CENTRAL SOUTH DAKOTA

CITY           SKY/WX    TMP DP  RH WIND       PRES   REMARKS
BUFFALO          N/A     49  21  33 SW10      29.73F
FAITH            N/A     51  20  29 W12       29.82F
MOBRIDGE       CLOUDY    49  24  37 N3        29.80F
$$

SDZ012>016-024>037-041>051-057-063-072>074-192200-
SOUTHWEST AND SOUTH CENTRAL SOUTH DAKOTA

CITY           SKY/WX    TMP DP  RH WIND       PRES   REMARKS
RAPID CTY ARPT CLOUDY    54  17  23 SE10      29.83F
PIERRE         CLOUDY    53  23  31 SW7       29.83F
CUSTER         CLOUDY    43  14  31 W15G23    29.88F
ELLSWORTH AFB  CLOUDY    53  18  24 SE9       29.83F
PHILIP         SUNNY     57  22  25 SW13      29.85F
PINE RIDGE     CLOUDY    54  17  23 W9        29.89F
SPEARFISH      FAIR      52  18  25 E6        29.83F
WINNER         FAIR      60  18  19 W7        29.87F
$$

SDZ004>011-016>023-039-040-192200-
NORTHEAST SOUTH DAKOTA

CITY           SKY/WX    TMP DP  RH WIND       PRES   REMARKS
ABERDEEN       CLOUDY    50  23  34 W10       29.83F
WATERTOWN      SUNNY     47  26  44 SW15      29.84F
BROOKINGS      CLOUDY    48  23  37 SW14G21   29.87F
SISSETON         N/A     49  23  36 W20       29.80F
$$

SDZ017-020-022-023-036>040-048>070-192200-
SOUTHEAST SOUTH DAKOTA

CITY           SKY/WX    TMP DP  RH WIND       PRES   REMARKS
SIOUX FALLS    PTSUNNY   52  26  36 SW12      29.90F
HURON          CLOUDY    52  21  29 SW13      29.85F
CHAMBERLAIN    SUNNY     55  26  33 S7        29.86F
MITCHELL       CLOUDY    53  24  32 SW10      29.89F
YANKTON        CLOUDY    53  26  35 SW10      29.91F
$$

ABBREVIATIONS USED IN REMARKS
   TC - TEMPERATURE IN CELSIUS
  WCI - WIND CHILL INDEX
   HX - HEAT INDEX
  VSB - VISIBILITY





USA.gov is the U.S. government's official web portal to all federal, state and local government web resources and services.